Location: Invercargill
(46.4000°S, 168.3500°E)
Time: 17:42:25
(UTC+12:00)

CZ-4B R/B - Pass Details

Date: 14 May 2021
Orbit: 488 x 648 km, 97.9° (Epoch: 14 June)

Event Time Altitude Azimuth Distance (km) Brightness Sun altitude
Rises 18:50:43 0° 172° (S) 3,002 6.4 -14.7°
Reaches altitude 10° 18:53:01 10° 176° (S) 2,074 5.6 -15.1°
Maximum altitude 18:57:25 50° 251° (WSW) 816 4.0 -15.9°
Drops below altitude 10° 19:01:36 10° 326° (NW) 1,982 6.3 -16.6°
Sets 19:03:46 0° 331° (NNW) 2,854 7.0 -16.9°
